When you browse on this site, cookies collect data to enhance your experience and personalize the content and advertising you see.
Visit our Privacy Policy to learn more. By continuing to use the site, you agree to this use of cookies and data.
  • In Latvia
  • List of Countries
  • For 7 days
  • Water Temperature
  • Satellite Maps
  • Weather Map
  • Weather Widgets
  • user-avatar
    Login

    Hourly Weather Hasselt

    Today, 21 April, Sunday

    Time Temperature Precipitation Wind Pressure Humidity
    00:00 +14°C° 0 mm 3 mps 765 mmHg 59%
    01:00 +13°C° 0 mm 3 mps 765 mmHg 62%
    02:00 +13°C° 0 mm 2 mps 764 mmHg 65%
    03:00 +12°C° 0 mm 2 mps 764 mmHg 68%
    04:00 +13°C° 0 mm 2 mps 763 mmHg 70%
    05:00 +13°C° 0 mm 2 mps 763 mmHg 71%
    06:00 +14°C° 0 mm 2 mps 763 mmHg 67%
    07:00 +16°C° 0 mm 2 mps 763 mmHg 62%
    08:00 +18°C° 0 mm 2 mps 762 mmHg 57%
    09:00 +20°C° 0 mm 2 mps 762 mmHg 53%
    10:00 +21°C° 0 mm 2 mps 762 mmHg 48%
    11:00 +24°C° 0 mm 3 mps 761 mmHg 43%
    12:00 +25°C° 0 mm 3 mps 761 mmHg 38%
    13:00 +25°C° 0 mm 3 mps 760 mmHg 38%
    14:00 +25°C° 0 mm 3 mps 760 mmHg 38%
    15:00 +25°C° 0 mm 3 mps 759 mmHg 37%
    16:00 +24°C° 0 mm 2 mps 759 mmHg 42%
    17:00 +21°C° 0 mm 2 mps 758 mmHg 47%
    18:00 +20°C° 0 mm 2 mps 758 mmHg 52%
    19:00 +18°C° 0 mm 2 mps 758 mmHg 54%
    20:00 +17°C° 0 mm 2 mps 758 mmHg 55%
    21:00 +15°C° 0 mm 2 mps 758 mmHg 57%
    22:00 +15°C° 0 mm 2 mps 758 mmHg 58%
    23:00 +14°C° 0 mm 2 mps 758 mmHg 60%

    Tomorrow, 22 April, Monday

    Time Temperature Precipitation Wind Pressure Humidity
    00:00 +14°C° 0 mm 2 mps 757 mmHg 62%
    01:00 +13°C° 0 mm 2 mps 757 mmHg 62%
    02:00 +13°C° 0 mm 2 mps 756 mmHg 62%
    03:00 +13°C° 0 mm 2 mps 756 mmHg 61%
    04:00 +13°C° 0 mm 2 mps 756 mmHg 63%
    05:00 +13°C° 0 mm 2 mps 755 mmHg 64%
    06:00 +14°C° 0 mm 2 mps 755 mmHg 65%
    07:00 +16°C° 0 mm 3 mps 755 mmHg 60%
    08:00 +18°C° 0 mm 3 mps 754 mmHg 54%
    09:00 +21°C° 0 mm 4 mps 754 mmHg 48%
    10:00 +22°C° 0 mm 4 mps 754 mmHg 45%
    11:00 +23°C° 0 mm 5 mps 753 mmHg 42%
    12:00 +23°C° 0 mm 5 mps 753 mmHg 39%
    13:00 +23°C° 0 mm 5 mps 752 mmHg 39%
    14:00 +25°C° 0 mm 5 mps 751 mmHg 39%
    15:00 +25°C° 0 mm 5 mps 751 mmHg 39%
    16:00 +22°C° 0 mm 4 mps 750 mmHg 44%
    17:00 +21°C° 0 mm 4 mps 750 mmHg 50%
    18:00 +19°C° 0 mm 3 mps 750 mmHg 55%
    19:00 +18°C° 0 mm 4 mps 750 mmHg 55%
    20:00 +17°C° 0 mm 4 mps 750 mmHg 55%
    21:00 +15°C° 0 mm 5 mps 750 mmHg 55%
    22:00 +14°C° 0 mm 5 mps 750 mmHg 56%
    23:00 +13°C° 0 mm 4 mps 750 mmHg 58%

    Day after tomorrow, 23 April, Tuesday

    Time Temperature Precipitation Wind Pressure Humidity
    00:00 +12°C° 0 mm 4 mps 749 mmHg 60%
    01:00 +12°C° 0 mm 4 mps 749 mmHg 60%
    02:00 +11°C° 0 mm 4 mps 749 mmHg 60%
    03:00 +11°C° 0 mm 4 mps 748 mmHg 60%
    04:00 +11°C° 0 mm 4 mps 748 mmHg 61%
    05:00 +11°C° 0 mm 4 mps 748 mmHg 63%
    06:00 +11°C° 0 mm 4 mps 748 mmHg 65%
    07:00 +13°C° 0 mm 4 mps 748 mmHg 63%
    08:00 +14°C° 0 mm 4 mps 748 mmHg 61%
    09:00 +16°C° 0 mm 5 mps 747 mmHg 59%
    10:00 +17°C° 0 mm 5 mps 747 mmHg 57%
    11:00 +19°C° 0 mm 5 mps 747 mmHg 55%
    12:00 +21°C° 0 mm 5 mps 746 mmHg 53%
    13:00 +21°C° 0 mm 4 mps 746 mmHg 53%
    14:00 +22°C° 0 mm 4 mps 746 mmHg 52%
    15:00 +22°C° 0 mm 4 mps 745 mmHg 51%
    16:00 +21°C° 0 mm 4 mps 745 mmHg 56%
    17:00 +20°C° 0 mm 4 mps 745 mmHg 61%
    18:00 +19°C° 0 mm 3 mps 745 mmHg 66%
    19:00 +18°C° 0 mm 3 mps 746 mmHg 68%
    20:00 +17°C° 0 mm 3 mps 746 mmHg 70%
    21:00 +16°C° 0 mm 3 mps 746 mmHg 72%
    22:00 +14°C° 0 mm 3 mps 746 mmHg 75%
    23:00 +13°C° 0 mm 3 mps 746 mmHg 78%

    24 April, Wednesday

    Time Temperature Precipitation Wind Pressure Humidity
    00:00 +13°C° 0 mm 2 mps 746 mmHg 81%
    01:00 +13°C° 0 mm 2 mps 746 mmHg 84%
    02:00 +13°C° 0 mm 2 mps 746 mmHg 86%
    03:00 +13°C° 0 mm 2 mps 746 mmHg 89%
    04:00 +13°C° 0.2 mm 2 mps 747 mmHg 89%
    05:00 +14°C° 0.2 mm 2 mps 747 mmHg 89%
    06:00 +14°C° 0.2 mm 3 mps 747 mmHg 90%
    07:00 +17°C° 0.2 mm 3 mps 747 mmHg 83%
    08:00 +18°C° 0.2 mm 4 mps 747 mmHg 77%
    09:00 +20°C° 0.2 mm 5 mps 748 mmHg 71%
    10:00 +21°C° 0.8 mm 5 mps 748 mmHg 68%
    11:00 +21°C° 0.8 mm 5 mps 748 mmHg 66%
    12:00 +22°C° 0.8 mm 6 mps 748 mmHg 63%
    13:00 +23°C° 0.1 mm 6 mps 748 mmHg 59%
    14:00 +23°C° 0.1 mm 6 mps 748 mmHg 55%
    15:00 +24°C° 0.1 mm 6 mps 748 mmHg 50%
    16:00 +23°C° 0 mm 5 mps 748 mmHg 56%
    17:00 +21°C° 0 mm 4 mps 748 mmHg 61%
    18:00 +20°C° 0 mm 3 mps 748 mmHg 67%
    19:00 +19°C° 0.1 mm 4 mps 748 mmHg 69%
    20:00 +18°C° 0.1 mm 4 mps 749 mmHg 71%
    21:00 +18°C° 0.1 mm 4 mps 749 mmHg 73%
    22:00 +15°C° 0.8 mm 5 mps 750 mmHg 78%
    23:00 +14°C° 0.8 mm 5 mps 750 mmHg 83%

    25 April, Thursday

    Time Temperature Precipitation Wind Pressure Humidity
    00:00 +13°C° 0.8 mm 5 mps 751 mmHg 88%
    01:00 +12°C° 0 mm 4 mps 751 mmHg 89%
    02:00 +12°C° 0 mm 3 mps 751 mmHg 89%
    03:00 +12°C° 0 mm 2 mps 751 mmHg 90%
    04:00 +12°C° 0 mm 2 mps 751 mmHg 88%
    05:00 +12°C° 0 mm 2 mps 751 mmHg 87%
    06:00 +11°C° 0 mm 3 mps 751 mmHg 85%
    07:00 +13°C° 0 mm 4 mps 751 mmHg 76%
    08:00 +15°C° 0 mm 5 mps 751 mmHg 67%
    09:00 +17°C° 0 mm 6 mps 751 mmHg 58%
    10:00 +19°C° 0 mm 6 mps 751 mmHg 55%
    11:00 +20°C° 0 mm 7 mps 750 mmHg 52%
    12:00 +21°C° 0 mm 7 mps 750 mmHg 49%
    13:00 +20°C° 0.2 mm 8 mps 750 mmHg 53%
    14:00 +18°C° 0.2 mm 8 mps 750 mmHg 56%
    15:00 +18°C° 0.2 mm 9 mps 749 mmHg 59%
    16:00 +16°C° 0.3 mm 7 mps 750 mmHg 68%
    17:00 +14°C° 0.3 mm 6 mps 750 mmHg 77%
    18:00 +12°C° 0.3 mm 5 mps 750 mmHg 85%
    19:00 +12°C° 0.1 mm 5 mps 751 mmHg 86%
    20:00 +11°C° 0.1 mm 4 mps 751 mmHg 86%
    21:00 +10°C° 0.1 mm 4 mps 752 mmHg 86%
    22:00 +10°C° 0 mm 4 mps 752 mmHg 86%
    23:00 +10°C° 0 mm 4 mps 752 mmHg 85%

    26 April, Friday

    Time Temperature Precipitation Wind Pressure Humidity
    00:00 +10°C° 0 mm 4 mps 753 mmHg 84%
    01:00 +8°C° 0 mm 4 mps 753 mmHg 84%
    02:00 +8°C° 0 mm 4 mps 753 mmHg 84%
    03:00 +8°C° 0 mm 4 mps 753 mmHg 84%
    04:00 +8°C° 0 mm 5 mps 754 mmHg 83%
    05:00 +8°C° 0 mm 5 mps 754 mmHg 82%
    06:00 +8°C° 0 mm 6 mps 754 mmHg 81%
    07:00 +9°C° 0 mm 6 mps 755 mmHg 76%
    08:00 +10°C° 0 mm 6 mps 755 mmHg 71%
    09:00 +11°C° 0 mm 7 mps 755 mmHg 66%
    10:00 +12°C° 0 mm 7 mps 755 mmHg 62%
    11:00 +14°C° 0 mm 6 mps 755 mmHg 58%
    12:00 +15°C° 0 mm 6 mps 756 mmHg 54%
    13:00 +15°C° 0 mm 6 mps 756 mmHg 53%
    14:00 +15°C° 0 mm 6 mps 756 mmHg 52%
    15:00 +15°C° 0 mm 6 mps 756 mmHg 51%
    16:00 +14°C° 0.2 mm 5 mps 757 mmHg 58%
    17:00 +13°C° 0.2 mm 4 mps 757 mmHg 65%
    18:00 +12°C° 0.2 mm 3 mps 758 mmHg 72%
    19:00 +11°C° 0 mm 3 mps 758 mmHg 75%
    20:00 +10°C° 0 mm 3 mps 759 mmHg 78%
    21:00 +9°C° 0 mm 3 mps 760 mmHg 81%
    22:00 +9°C° 0 mm 3 mps 760 mmHg 83%
    23:00 +8°C° 0 mm 3 mps 760 mmHg 85%
    Show more